Date String (YYYY-MM-DD hh:mm:ss) UTC,Instrument flags,absolute air pressure of the measurement (hPa),sample flow rate (lpm),inlet stack bypass flow (lpm),air temperature of the measurement (°C),ambient temperature measured by the external sensor (°C),aerosol sample conditioner tube jacket temperature (°C),OPC LED temperature (°C),internal box temperature (°C),relative humidity of the measurement (%),span deviation,mass concentration of particles derived from Lorenz-Mie calculation of OPC scattering (μg/m³),mass concentration of particles derived from Lorenz-Mie calculation of OPC scattering (μg/m³),mass concentration of particles derived from Lorenz-Mie calculation of OPC scattering (μg/m³)
DateTimeUTC,F1_M11,P_M11,Q1_M11,Q2_M11,T1_M11,T2_M11,T3_M11,T4_M11,T5_M11,U1_M11,ZSPAN_M11,X0_M11,X2_M11,X1_M11
2023-09-28 13:00:00,SystemResetWarning,0828.6,5.00,000.00,029.0,027.7,000.0,037.4,030.7,12.8,0000.0,0012.76,0005.79,0004.92
2023-09-28 13:01:00,SystemResetWarning,0828.6,4.99,000.00,029.0,027.7,000.0,037.4,030.7,12.8,0000.0,0012.49,0005.80,0004.92
2023-09-28 13:02:00,SystemResetWarning,0828.6,5.00,000.00,029.0,027.7,000.0,037.4,030.7,12.8,0000.0,0012.45,0005.88,0004.96
2023-09-28 13:03:00,SystemResetWarning,0828.6,5.01,000.00,029.0,027.7,000.0,037.4,030.7,12.8,0000.0,0012.57,0005.97,0005.01
2023-09-28 13:04:00,SystemResetWarning,0828.7,5.01,000.00,029.1,027.7,000.0,037.5,030.7,13.0,0000.0,0012.96,0006.00,0005.05
2023-09-28 13:05:00,SystemResetWarning,0828.7,5.00,000.00,029.1,027.7,000.0,037.5,030.8,12.9,0000.0,0013.85,0006.04,0005.09
2023-09-28 13:06:00,SystemResetWarning,0828.6,4.99,000.00,029.1,027.8,000.0,037.5,030.8,13.3,0000.0,0014.19,0006.12,0005.13
2023-09-28 13:07:00,SystemResetWarning,0828.7,5.00,000.00,029.1,027.8,000.0,037.5,030.8,12.8,0000.0,0014.51,0006.14,0005.15
2023-09-28 13:08:00,SystemResetWarning,0828.7,4.99,000.00,029.1,027.8,000.0,037.5,030.8,12.5,0000.0,0015.33,0006.10,0005.17
2023-09-28 13:09:00,SystemResetWarning,0828.7,4.99,000.00,029.1,027.8,000.0,037.5,030.8,12.5,0000.0,0015.82,0006.09,0005.16
2023-09-28 13:10:00,SystemResetWarning,0828.6,5.00,000.00,029.1,027.8,000.0,037.5,030.8,12.6,0000.0,0016.81,0006.04,0005.15
2023-09-28 13:11:00,SystemResetWarning,0828.6,5.02,000.00,029.1,027.8,000.0,037.5,030.8,12.6,0000.0,0016.47,0006.03,0005.14
2023-09-28 13:12:00,SystemResetWarning,0828.6,4.99,000.00,029.1,027.8,000.0,037.5,030.8,12.6,0000.0,0016.63,0006.00,0005.12
2023-09-28 13:13:00,SystemResetWarning,0828.6,4.99,000.00,029.1,027.8,000.0,037.5,030.8,12.8,0000.0,0016.60,0005.99,0005.12
2023-09-28 13:14:00,SystemResetWarning,0828.6,5.01,000.00,029.1,027.8,000.0,037.5,030.8,12.8,0000.0,0016.49,0005.98,0005.12
2023-09-28 13:15:00,SystemResetWarning,0828.7,5.01,000.00,029.1,027.8,000.0,037.5,030.8,12.7,0000.0,0016.93,0005.99,0005.11
2023-09-28 13:16:00,SystemResetWarning,0828.6,5.00,000.00,029.2,027.8,000.0,037.5,030.8,12.8,0000.0,0016.74,0006.01,0005.09
2023-09-28 13:17:00,SystemResetWarning,0828.6,5.00,000.00,029.2,027.8,000.0,037.6,030.8,13.0,0000.0,0017.13,0005.96,0005.08
2023-09-28 13:18:00,SystemResetWarning,0828.6,5.00,000.00,029.2,027.8,000.0,037.6,030.8,13.4,0000.0,0016.93,0005.93,0005.05
2023-09-28 13:19:00,SystemResetWarning,0828.6,4.99,000.00,029.2,027.9,000.0,037.6,030.8,13.3,0000.0,0017.04,0005.90,0005.01
2023-09-28 13:20:00,SystemResetWarning,0828.6,5.00,000.00,029.2,027.9,000.0,037.6,030.8,13.3,0000.0,0016.78,0005.85,0004.98
2023-09-28 13:21:00,SystemResetWarning,0828.6,5.01,000.00,029.2,027.7,000.0,037.6,030.9,13.2,0000.0,0015.69,0005.83,0004.96
2023-09-28 13:22:00,SystemResetWarning,0828.6,4.98,000.00,029.2,026.1,000.0,037.6,030.7,13.3,0000.0,0015.88,0005.81,0004.93
2023-09-28 13:23:00,SystemResetWarning,0828.6,5.02,000.00,029.1,024.9,000.0,037.5,030.6,13.1,0000.0,0016.77,0005.76,0004.91
2023-09-28 13:24:00,SystemResetWarning,0828.5,5.00,000.00,029.0,024.9,000.0,037.5,030.4,13.3,0000.0,0016.78,0005.73,0004.89
2023-09-28 13:25:00,SystemResetWarning,0828.5,5.00,000.00,028.9,025.2,000.0,037.5,030.3,12.8,0000.0,0017.48,0005.70,0004.88
2023-09-28 13:26:00,SystemResetWarning,0828.6,5.00,000.00,028.8,025.5,000.0,037.5,030.2,12.5,0000.0,0016.71,0005.63,0004.85
2023-09-28 13:27:00,SystemResetWarning,0828.6,5.00,000.00,028.8,025.9,000.0,037.4,030.2,12.5,0000.0,0016.11,0005.58,0004.82
2023-09-28 13:28:00,SystemResetWarning,0828.6,5.00,000.00,028.7,026.2,000.0,037.4,030.3,12.3,0000.0,0015.90,0005.51,0004.78
2023-09-28 13:29:00,SystemResetWarning,0828.6,5.00,000.00,028.7,026.4,000.0,037.4,030.3,12.2,0000.0,0015.39,0005.48,0004.76
2023-09-28 13:30:00,SystemResetWarning,0828.6,4.99,000.00,028.7,026.6,000.0,037.4,030.3,12.3,0000.0,0015.98,0005.53,0004.78
2023-09-28 13:31:00,SystemResetWarning,0828.6,4.99,000.00,028.7,026.8,000.0,037.4,030.3,13.4,0000.0,0016.40,0005.55,0004.78
2023-09-28 13:32:00,SystemResetWarning,0828.6,5.00,000.00,028.7,026.9,000.0,037.3,030.4,13.6,0000.0,0016.93,0005.56,0004.78
2023-09-28 13:33:00,SystemResetWarning,0828.6,5.00,000.00,028.7,027.1,000.0,037.3,030.4,13.0,0000.0,0017.48,0005.56,0004.80
2023-09-28 13:34:00,SystemResetWarning,0828.6,5.00,000.00,028.8,027.2,000.0,037.3,030.4,12.8,0000.0,0016.35,0005.58,0004.80
2023-09-28 13:35:00,SystemResetWarning,0828.6,5.00,000.00,028.8,027.3,000.0,037.3,030.4,12.7,0000.0,0015.64,0005.53,0004.79
2023-09-28 13:36:00,SystemResetWarning,0828.6,5.01,000.00,028.8,027.3,000.0,037.3,030.5,12.3,0000.0,0014.98,0005.47,0004.77
2023-09-28 13:37:00,SystemResetWarning,0828.6,5.00,000.00,028.8,027.4,000.0,037.3,030.5,12.1,0000.0,0014.96,0005.49,0004.77
2023-09-28 13:38:00,SystemResetWarning,0828.6,5.00,000.00,028.8,027.5,000.0,037.3,030.5,12.5,0000.0,0015.50,0005.52,0004.78
2023-09-28 13:39:00,SystemResetWarning,0828.6,4.99,000.00,028.9,027.5,000.0,037.3,030.5,12.9,0000.0,0015.45,0005.59,0004.81
2023-09-28 13:40:00,SystemResetWarning,0828.7,4.99,000.00,028.9,027.5,000.0,037.3,030.6,12.9,0000.0,0015.65,0005.62,0004.82
2023-09-28 13:41:00,SystemResetWarning,0828.6,5.00,000.00,028.9,027.6,000.0,037.3,030.6,12.3,0000.0,0014.29,0005.56,0004.81
2023-09-28 13:42:00,SystemResetWarning,0828.6,5.00,000.00,028.9,027.6,000.0,037.4,030.6,11.3,0000.0,0013.58,0005.55,0004.82
2023-09-28 13:43:00,SystemResetWarning,0828.6,5.00,000.00,028.9,027.6,000.0,037.4,030.6,12.0,0000.0,0013.02,0005.58,0004.82
2023-09-28 13:44:00,SystemResetWarning,0828.6,5.00,000.00,028.9,027.7,000.0,037.4,030.6,12.6,0000.0,0012.23,0005.57,0004.82
2023-09-28 13:45:00,SystemResetWarning,0828.6,5.00,000.00,029.0,027.7,000.0,037.4,030.7,11.5,0000.0,0012.16,0005.58,0004.81
2023-09-28 13:46:00,SystemResetWarning,0828.6,5.00,000.00,029.0,027.7,000.0,037.4,030.7,10.7,0000.0,0012.02,0005.62,0004.82
2023-09-28 13:47:00,SystemResetWarning,0828.6,5.00,000.00,029.0,027.7,000.0,037.4,030.7,10.7,0000.0,0011.95,0005.70,0004.84
2023-09-28 13:48:00,SystemResetWarning,0828.6,5.01,000.00,029.0,027.8,000.0,037.4,030.7,11.7,0000.0,0012.58,0005.73,0004.84
2023-09-28 13:49:00,SystemResetWarning,0828.6,5.01,000.00,029.0,027.8,000.0,037.4,030.7,11.5,0000.0,0012.46,0005.73,0004.85
2023-09-28 13:50:00,SystemResetWarning,0828.6,5.00,000.00,029.1,027.8,000.0,037.5,030.8,11.1,0000.0,0012.93,0005.72,0004.86
2023-09-28 13:51:00,SystemResetWarning,0828.6,5.01,000.00,029.1,027.9,000.0,037.5,030.8,11.3,0000.0,0012.80,0005.71,0004.86
2023-09-28 13:52:00,SystemResetWarning,0828.6,5.00,000.00,029.1,027.9,000.0,037.5,030.8,12.3,0000.0,0012.51,0005.74,0004.86
2023-09-28 13:53:00,SystemResetWarning,0828.7,5.00,000.00,029.1,027.9,000.0,037.5,030.8,12.0,0000.0,0012.68,0005.82,0004.87
2023-09-28 13:54:00,SystemResetWarning,0828.6,5.00,000.00,029.1,027.9,000.0,037.5,030.8,11.8,0000.0,0012.72,0005.85,0004.88
2023-09-28 13:55:00,SystemResetWarning,0828.6,5.00,000.00,029.2,027.9,000.0,037.5,030.9,11.2,0000.0,0012.81,0005.92,0004.89
2023-09-28 13:56:00,SystemResetWarning,0828.7,4.98,000.00,029.2,026.8,000.0,037.5,030.8,10.6,0000.0,0013.16,0005.94,0004.90
2023-09-28 13:57:00,SystemResetWarning,0828.6,5.00,000.00,029.1,025.0,000.0,037.4,030.6,11.2,0000.0,0013.26,0005.94,0004.91
2023-09-28 13:58:00,SystemResetWarning,0828.6,5.01,000.00,029.0,024.6,000.0,037.4,030.5,11.4,0000.0,0013.55,0005.95,0004.92
2023-09-28 13:59:00,SystemResetWarning,0828.7,5.00,000.00,028.9,024.9,000.0,037.4,030.3,10.9,0000.0,0013.80,0005.94,0004.92
